Showing default

GONETS M 16 (M26), 44907

Orbit data source: Space-Track

GONETS M 16 (M26), 44907 is a payload satellite owned by Gonets (CIS) in LEO that was launched on Thu, 26 Dec 2019 UTC via an ROKOT launch vehicle from the Plesetsk Missile And Space Complex (PKMTR). Payload-class satellites include a variety of spacecraft equipped with specific instruments for various scientific and technological missions. These include communications satellites like Starlink; space stations such as the ISS; scientific satellites like the Hubble; Earth observation satellites from companies like Planet Labs, Umbra, and HawkEye 360; GPS; miniature CubeSats for education and research; and military/defense satellites.

Loading next visibility...
Identifier
44907, 2019-096C
Orbit
LEO
Country
Flag of CISCIS
Related business
Manufacturer
Resehetnev ISS
Mission
Operational Commercial Communications
Bus & Motor
STRELA-3M, Unknown motor
Mass
225 kg wet, 225 kg dry
Launch date (UTC)
2019-12-26 (6 years ago)
Launch vehicle
ROKOT
Launch site
Plesetsk Missile And Space Complex (PKMTR)
Object type
Payload
Rocket body
Debris
Shape & HBR
Cyl + 1 Ant, 3.5 m
Radar Cross Section
1.798 m², Large (>1 m²)

Expand to show TLE details & history
Last TLE update: 7 hours ago

TLE from 7 hours ago
0 GONETS M 16 (M26)
1 44907U 19096C   26126.48694652 -.00000101  00000-0 -79716-3 0  9997
2 44907  82.5159 109.9207 0010126 315.1172  44.9088 12.42890124288457
Epoch: 2026-05-06T11:41Z
TLE epoch observation values (Epoch: 2026-05-06T11:41:12.179Z)
Latitude
-0.00003°
Longitude
70.27321°
Altitude
1,491.433 km
Speed
7.121 km/s
True Right ascension
07h 19m 40s
True Declination
0° 00' 00"
Sunlit
Object was in daylight at epoch
Visualization orbit readout
Latitude
Unknown
Longitude
Unknown
Altitude
Unknown
Speed
Unknown
Apparent Right ascension
Unknown
Apparent Declination
Unknown
Sunlit
N/A
Visualization observer readout
Local Sidereal Time
02:23:20
Azimuth
Unknown
Elevation
Unknown
Doppler factor
Unknown
Orbital elements
Apogee altitude
1,499.695 km
Perigee altitude
1,483.757 km
Semi-major axis
7,869.863 km
Eccentricity
0.00101
Inclination
82.5159°
RAAN
109.9207°
Arg. of periapsis
315.1172°
True anomaly
44.99079°
Mean anomaly
44.9088°
Eccentric anomaly
44.94979°
Mean motion
3.1088 °/min
Orbital period
115.8 mins
BSTAR
-0.00079716
Loading maneuver chart data...
Computing Atmospheric mass density...
Loading historical data...
Loading historical data...
Loading historical data...
Loading historical data...
Loading historical data...
Loading historical data...
Loading historical data...
Other satellites on launch #96 in the year 2019 (2019-12-26 UTC)

Documentation

Showing up to 5 results
|